[[{"header":{"parameterUnit":"m.s-1","parameterCategory":1,"la1":30.2991,"la2":30.254,"lo1":-89.0895,"lo2":-89.0444,"dy":0.0017,"dx":0.0017,"nx":28,"ny":28,"refTime":"2025-08-05T21:00:00:Z","depth":0,"parameterNumber":2,"parameterNumberName":"U-component_of_WINDS"},"data":[0,0,0,0,0,0,0,0,0,0,0,0,0,0,0,0,0,0,0,0,0,0,0,0,0,0,0,0,0,0,0,0,0,0,0,0,0,0,0,0,0,0,0,0,0,0,0,0,0,0,0,0,0,0,0,0,0,0,-0.5557,-0.5556,0,-0.5457,-0.5456,-0.5455,-0.5414,-0.5414,-0.5415,-0.5415,-0.5308,-0.5305,-0.5302,0,0,0,0,0,0,0,0,0,0,0,0,0,-0.5711,-0.5709,-0.5558,-0.5556,-0.5555,-0.5457,-0.5456,-0.5454,-0.5414,-0.5414,-0.5415,-0.5415,-0.5309,-0.5306,-0.5302,0,0,0,0,0,0,0,0,0,0,0,0,0,-0.5631,-0.5708,-0.5558,-0.5523,-0.5519,-0.5457,-0.5456,-0.5454,-0.5414,-0.5414,-0.5415,-0.5415,-0.531,-0.5306,-0.5301,-0.5265,0,0,-0.5287,-0.5285,0,0,0,0,0,0,0,0,-0.5636,-0.5625,-0.553,-0.5525,-0.5521,-0.5449,-0.5471,-0.5391,-0.5414,-0.5454,-0.5415,-0.5415,-0.5354,-0.5346,-0.5326,-0.526,-0.5256,-0.5287,-0.5284,-0.5282,-0.5281,0,0,0,0,0,0,0,-0.5641,-0.563,-0.5518,-0.5528,-0.5523,-0.5512,-0.5501,-0.5456,-0.5403,-0.545,-0.5447,-0.5436,-0.5352,-0.5331,-0.5324,-0.5254,-0.5287,-0.5283,-0.528,-0.5278,-0.5154,-0.5154,0,0,0,0,0,0,-0.5653,-0.5634,-0.5521,-0.5515,-0.558,-0.5509,-0.5496,-0.5471,-0.5403,-0.5394,-0.5436,-0.5435,-0.5339,-0.5329,-0.532,-0.5273,-0.5282,-0.5278,-0.5275,-0.5155,-0.5154,-0.5154,0,0,0,0,0,0,-0.5657,-0.5643,-0.5525,-0.5574,-0.5558,-0.5506,-0.5478,-0.5469,-0.5448,-0.5393,-0.5383,-0.5424,-0.5339,-0.5326,-0.528,-0.5269,-0.5276,-0.5272,-0.5156,-0.5155,-0.5154,-0.518,0,0,0,0,0,0,-0.5661,-0.5645,-0.5631,-0.5574,-0.5555,-0.5487,-0.5477,-0.5467,-0.5441,-0.5438,-0.5379,-0.5369,-0.5338,-0.5287,-0.5275,-0.5263,-0.5268,-0.5156,-0.5155,-0.5154,-0.518,-0.518,-0.5181,0,0,0,0,0,-0.5667,-0.5642,-0.5631,-0.5617,-0.5537,-0.5487,-0.5476,-0.5441,-0.544,-0.5425,-0.539,-0.5371,-0.5273,-0.5282,-0.5269,-0.5255,-0.5157,-0.5156,-0.5154,-0.518,-0.518,-0.5181,0,0,0,0,0,0,-0.5698,-0.5633,-0.5621,-0.5576,-0.5538,-0.548,-0.5461,-0.5443,-0.5403,-0.5402,-0.5359,-0.5346,-0.5303,-0.5274,-0.5287,-0.5217,-0.5213,-0.5209,-0.5237,-0.5237,-0.5238,-0.5245,-0.5264,0,0,0,0,0,-0.57,-0.5665,-0.561,-0.5577,-0.5558,-0.5513,-0.549,-0.5466,-0.5424,-0.5407,-0.5368,-0.5327,-0.5286,-0.526,-0.522,-0.5176,-0.5163,-0.516,-0.5161,-0.5161,-0.5158,-0.5133,-0.5131,-0.515,-0.515,-0.515,0,0,-0.5703,-0.5663,-0.5644,-0.5582,-0.5549,-0.5513,-0.5499,-0.5462,-0.5434,-0.5401,-0.5355,-0.5325,-0.5276,-0.5231,-0.5209,-0.5206,-0.515,-0.516,-0.5161,-0.5157,-0.5131,-0.513,-0.5128,-0.5149,-0.5149,-0.5149,0,0,-0.569,-0.5657,-0.5625,-0.5593,-0.5544,-0.5515,-0.5508,-0.5453,-0.5432,-0.5386,-0.536,-0.5327,-0.5258,-0.5224,-0.5198,-0.5175,-0.5156,-0.5163,-0.5164,-0.514,-0.5138,-0.5137,-0.5128,-0.5126,-0.516,-0.516,-0.516,0,-0.5699,-0.5645,-0.5611,-0.5575,-0.5548,-0.5518,-0.5485,-0.5456,-0.5396,-0.5378,-0.5375,-0.5289,-0.5254,-0.5201,-0.5195,-0.5175,-0.5165,-0.5168,-0.5142,-0.514,-0.5138,-0.5129,-0.5126,-0.5161,-0.5161,-0.5161,-0.516,0,-0.5659,-0.5622,-0.5602,-0.5547,-0.5518,-0.5484,-0.5444,-0.5419,-0.5399,-0.5369,-0.5323,-0.528,-0.5231,-0.5216,-0.5196,-0.516,-0.516,-0.515,-0.5145,-0.5138,-0.5129,-0.5125,-0.5162,-0.5162,-0.5162,-0.5161,0,0,-0.5661,-0.5589,-0.5582,-0.5557,-0.5501,-0.5471,-0.5436,-0.539,-0.5369,-0.5329,-0.5298,-0.5241,-0.5232,-0.5203,-0.5178,-0.5157,-0.5141,-0.515,-0.5148,-0.5149,-0.51,-0.5107,-0.5103,-0.5129,-0.5128,-0.5128,-0.5104,0,-0.5641,-0.5577,-0.5546,-0.5495,-0.5461,-0.5432,-0.5401,-0.5364,-0.5336,-0.5301,-0.527,-0.5231,-0.5222,-0.5204,-0.5183,-0.5148,-0.5131,-0.5149,-0.5099,-0.5097,-0.5111,-0.5099,-0.5106,-0.5085,-0.51,-0.5099,-0.5099,0,-0.5607,-0.5569,-0.5516,-0.5466,-0.545,-0.5423,-0.5378,-0.5346,-0.5303,-0.5284,-0.5252,-0.5228,-0.5189,-0.5189,-0.5134,-0.5148,-0.5126,-0.5106,-0.5104,-0.5097,-0.5097,-0.5091,-0.5077,-0.5074,-0.5093,-0.5093,-0.5094,0,-0.5614,-0.5549,-0.5509,-0.5488,-0.5429,-0.541,-0.5384,-0.5342,-0.5316,-0.5276,-0.5259,-0.5216,-0.5191,-0.5158,-0.5123,-0.5126,-0.5072,-0.5068,-0.5054,-0.5055,-0.5043,-0.5044,-0.5025,-0.5031,-0.5031,-0.5031,-0.5031,0,-0.5593,-0.5562,-0.5511,-0.5486,-0.545,-0.5414,-0.5379,-0.5351,-0.5314,-0.5282,-0.5255,-0.5226,-0.5182,-0.5148,-0.512,-0.5079,-0.5069,-0.5052,-0.5045,-0.5054,-0.5056,-0.5037,-0.5038,-0.503,-0.503,-0.503,-0.503,0,-0.5594,-0.5559,-0.5513,-0.5461,-0.5447,-0.5423,-0.5378,-0.5352,-0.5324,-0.5284,-0.5273,-0.5228,-0.5186,-0.5148,-0.5092,-0.5074,-0.5032,-0.5024,-0.5047,-0.5043,-0.5031,-0.5033,-0.4999,-0.4993,-0.5003,-0.5003,-0.5003,0,-0.5583,-0.5558,-0.5504,-0.5481,-0.5456,-0.5421,-0.5395,-0.5359,-0.5333,-0.5282,-0.5263,-0.522,-0.5183,-0.5117,-0.5078,-0.5036,-0.5025,-0.5017,-0.5019,-0.5029,-0.5024,-0.5026,-0.5023,-0.5017,-0.5017,-0.5017,-0.5017,0,-0.5566,-0.5551,-0.5515,-0.5473,-0.5443,-0.5408,-0.5373,-0.5356,-0.5313,-0.5285,-0.5243,-0.5214,-0.5158,-0.5115,-0.5069,-0.5041,-0.5021,-0.5017,-0.5011,-0.502,-0.5034,-0.5026,-0.5047,-0.5017,-0.5017,-0.5017,-0.5017,-0.5017,-0.556,-0.5537,-0.5495,-0.5456,-0.5426,-0.5394,-0.5367,-0.5336,-0.5301,-0.5253,-0.5234,-0.5191,-0.5149,-0.5084,-0.5057,-0.5022,-0.5018,-0.501,-0.5008,-0.5006,-0.5008,-0.5041,-0.5014,-0.5013,-0.5013,-0.5013,-0.5013,0,-0.5542,-0.5514,-0.5479,-0.543,-0.54,-0.5386,-0.5346,-0.5321,-0.5284,-0.5247,-0.5212,-0.5163,-0.5122,-0.5081,-0.5037,-0.5017,-0.5007,-0.5007,-0.5007,-0.5001,-0.5014,-0.5023,-0.5016,-0.5016,-0.5016,-0.5016,-0.5016,-0.5016,-0.5529,-0.5489,-0.5468,-0.5413,-0.5385,-0.5343,-0.5322,-0.5292,-0.5262,-0.5209,-0.5175,-0.515,-0.5111,-0.5064,-0.5026,-0.5015,-0.5,-0.5001,-0.4988,-0.5,-0.5,-0.5001,-0.5009,-0.4999,-0.4999,-0.4978,-0.4978,-0.4978]},{"header":{"parameterUnit":"m.s-1","parameterCategory":1,"la1":30.2991,"la2":30.254,"lo1":-89.0895,"lo2":-89.0444,"dy":0.0017,"dx":0.0017,"nx":28,"ny":28,"refTime":"2025-08-05T21:00:00:Z","depth":0,"parameterNumber":3,"parameterNumberName":"V-component_of_WINDS"},"data":[0,0,0,0,0,0,0,0,0,0,0,0,0,0,0,0,0,0,0,0,0,0,0,0,0,0,0,0,0,0,0,0,0,0,0,0,0,0,0,0,0,0,0,0,0,0,0,0,0,0,0,0,0,0,0,0,0,0,2.2664,2.2664,0,2.2628,2.2627,2.2627,2.267,2.2672,2.2673,2.2675,2.2631,2.2628,2.2626,0,0,0,0,0,0,0,0,0,0,0,0,0,2.2764,2.2762,2.2664,2.2664,2.2663,2.2628,2.2627,2.2627,2.267,2.2672,2.2674,2.2676,2.2632,2.2628,2.2625,0,0,0,0,0,0,0,0,0,0,0,0,0,2.2723,2.2761,2.2664,2.268,2.2682,2.2628,2.2627,2.2627,2.2669,2.2672,2.2674,2.2676,2.2633,2.2629,2.2625,2.2551,0,0,2.2613,2.2611,0,0,0,0,0,0,0,0,2.2725,2.2719,2.2678,2.2679,2.268,2.2656,2.2646,2.2601,2.2669,2.2674,2.2675,2.2678,2.2637,2.2633,2.262,2.2549,2.2547,2.2612,2.261,2.2608,2.2607,0,0,0,0,0,0,0,2.2728,2.2721,2.2649,2.2678,2.2679,2.2687,2.2684,2.2638,2.2642,2.2673,2.2677,2.2672,2.2638,2.2624,2.2619,2.2547,2.2612,2.2609,2.2606,2.2605,2.2412,2.2409,0,0,0,0,0,0,2.273,2.2723,2.2651,2.2648,2.2709,2.2684,2.268,2.2661,2.2643,2.2642,2.267,2.2674,2.263,2.2624,2.2618,2.2529,2.2608,2.2604,2.2602,2.2414,2.2411,2.2408,0,0,0,0,0,0,2.2732,2.2723,2.2652,2.2687,2.2678,2.2679,2.2658,2.2659,2.2646,2.264,2.264,2.2656,2.2631,2.2624,2.2568,2.2528,2.2602,2.2599,2.2417,2.2413,2.241,2.2352,0,0,0,0,0,0,2.2734,2.2723,2.2697,2.2686,2.2676,2.2604,2.2655,2.2657,2.2639,2.2645,2.2627,2.2626,2.2633,2.2573,2.2564,2.2524,2.2596,2.2421,2.2416,2.2411,2.2357,2.2346,2.2337,0,0,0,0,0,2.2738,2.2681,2.2695,2.2686,2.2644,2.2602,2.2596,2.2607,2.2636,2.2608,2.2605,2.2626,2.2535,2.2567,2.2557,2.2515,2.2423,2.2417,2.2411,2.2362,2.2348,2.2337,0,0,0,0,0,0,2.2685,2.268,2.2696,2.2634,2.2618,2.2609,2.2574,2.2593,2.2567,2.2572,2.2585,2.2581,2.2521,2.2513,2.2549,2.2442,2.2484,2.2475,2.2449,2.2437,2.2427,2.2429,2.2592,0,0,0,0,0,2.2667,2.2635,2.2632,2.2577,2.2569,2.2573,2.2555,2.2565,2.2549,2.2541,2.2534,2.2514,2.2481,2.2459,2.2428,2.2357,2.2352,2.2323,2.2313,2.2305,2.2296,2.2256,2.2242,2.2388,2.2388,2.2388,0,0,2.2627,2.2621,2.26,2.2567,2.2556,2.252,2.2567,2.2528,2.2501,2.2535,2.2481,2.2475,2.2454,2.239,2.2361,2.2381,2.2255,2.2297,2.229,2.2286,2.2248,2.2234,2.2222,2.2384,2.2385,2.2385,0,0,2.2538,2.2531,2.2484,2.2472,2.2456,2.2459,2.2448,2.2436,2.2434,2.2381,2.2405,2.2373,2.2316,2.23,2.2284,2.2189,2.2207,2.2178,2.2124,2.2085,2.2073,2.2063,2.2027,2.2014,2.217,2.217,2.217,0,2.249,2.244,2.2457,2.2416,2.24,2.2432,2.2383,2.237,2.2343,2.233,2.2354,2.2283,2.2272,2.2203,2.218,2.2167,2.2152,2.2179,2.2074,2.2064,2.2055,2.202,2.2007,2.2167,2.2167,2.2168,2.2168,0,2.2382,2.2347,2.2311,2.2286,2.2266,2.2222,2.2229,2.2207,2.2219,2.2218,2.2163,2.2151,2.2118,2.2103,2.2113,2.2035,2.2048,2.2073,2.2114,2.2037,2.2005,2.1992,2.2162,2.2163,2.2164,2.2165,0,0,2.2256,2.2242,2.2228,2.2217,2.2202,2.2174,2.213,2.21,2.2079,2.206,2.2021,2.1973,2.1996,2.1978,2.1987,2.1953,2.1875,2.1982,2.1981,2.196,2.1786,2.1765,2.175,2.1889,2.1886,2.1884,2.1787,0,2.2164,2.2091,2.2104,2.2032,2.1998,2.2028,2.1989,2.1974,2.1973,2.1942,2.1941,2.1905,2.194,2.1929,2.1897,2.1892,2.184,2.1899,2.185,2.1848,2.1852,2.1733,2.1712,2.162,2.1774,2.1772,2.1771,0,2.2048,2.2026,2.195,2.1939,2.1926,2.1891,2.1864,2.1836,2.1818,2.182,2.18,2.1816,2.1769,2.1814,2.1748,2.1788,2.1769,2.1764,2.1761,2.1754,2.1803,2.1721,2.1592,2.1577,2.1751,2.1753,2.1754,0,2.1961,2.1912,2.1861,2.1851,2.1837,2.1812,2.1804,2.179,2.1771,2.1746,2.1733,2.1703,2.1686,2.1661,2.1667,2.1699,2.1599,2.1645,2.1597,2.1596,2.1573,2.1573,2.1435,2.1564,2.1564,2.1565,2.1565,0,2.1856,2.1808,2.1822,2.1789,2.1736,2.1751,2.1697,2.1693,2.168,2.1645,2.1669,2.1636,2.1647,2.1614,2.1618,2.1562,2.1555,2.1552,2.1554,2.1549,2.1549,2.1535,2.154,2.1561,2.1562,2.1563,2.1563,0,2.1749,2.1756,2.1702,2.1694,2.1691,2.1651,2.1644,2.1612,2.1614,2.157,2.156,2.1561,2.1523,2.1528,2.1485,2.1488,2.1418,2.1428,2.1424,2.1425,2.1377,2.138,2.1222,2.1201,2.1346,2.1345,2.1343,0,2.168,2.1644,2.1633,2.1613,2.1604,2.1572,2.1552,2.1566,2.1544,2.1522,2.1493,2.1458,2.143,2.1367,2.1363,2.133,2.1337,2.1285,2.1332,2.1328,2.1334,2.1335,2.133,2.1274,2.1272,2.1271,2.127,0,2.1557,2.1563,2.1535,2.1509,2.1486,2.1465,2.1446,2.1428,2.144,2.1414,2.1377,2.1355,2.1312,2.1276,2.1245,2.1235,2.1253,2.1256,2.1242,2.1236,2.1234,2.1232,2.1396,2.1258,2.126,2.126,2.1261,2.1262,2.1465,2.1434,2.1422,2.139,2.1378,2.136,2.133,2.1328,2.1298,2.1265,2.1275,2.1232,2.1214,2.1175,2.1162,2.1127,2.1145,2.1127,2.1122,2.1116,2.111,2.1242,2.1121,2.1121,2.1122,2.1122,2.1122,0,2.1341,2.1335,2.1306,2.128,2.1255,2.1278,2.1258,2.1234,2.1197,2.118,2.1153,2.1109,2.1074,2.1067,2.1033,2.1006,2.1014,2.0997,2.0997,2.0994,2.1096,2.111,2.0991,2.0991,2.0991,2.0991,2.0991,2.0991,2.1274,2.1222,2.1226,2.1167,2.1161,2.1121,2.1107,2.109,2.1077,2.1027,2.0999,2.0996,2.0982,2.0948,2.0916,2.0914,2.0899,2.0879,2.088,2.0974,2.0987,2.1,2.1013,2.0876,2.0876,2.0781,2.0781,2.078]}]]